TimeEDT,TemperatureF,Dew PointF,Humidity,Sea Level PressureIn,VisibilityMPH,Wind Direction,Wind SpeedMPH,Gust SpeedMPH,PrecipitationIn,Events,Conditions,WindDirDegrees,DateUTC
12:54 AM,52.0,44.1,74,29.97,10.0,North,12.7,23.0,N/A,,Clear,350,2009-09-30 04:54:00
1:54 AM,51.1,44.1,77,29.97,10.0,North,13.8,21.9,N/A,,Partly Cloudy,350,2009-09-30 05:54:00
2:54 AM,50.0,44.6,82,30.01,10.0,NNW,12.7,21.9,N/A,,Clear,340,2009-09-30 06:54:00
3:54 AM,50.0,43.0,77,29.97,10.0,NNW,11.5,20.7,N/A,,Clear,340,2009-09-30 07:54:00
4:54 AM,48.9,43.0,80,29.97,10.0,North,6.9,-,N/A,,Clear,350,2009-09-30 08:54:00
5:54 AM,48.9,43.0,80,29.99,10.0,NNW,10.4,-,N/A,,Clear,340,2009-09-30 09:54:00
6:54 AM,48.0,43.0,83,30.01,10.0,NNW,15.0,-,N/A,,Clear,340,2009-09-30 10:54:00
7:54 AM,48.0,44.1,86,30.04,10.0,NNW,9.2,-,N/A,,Clear,340,2009-09-30 11:54:00
8:54 AM,52.0,44.1,74,30.05,10.0,NNW,11.5,-,N/A,,Clear,340,2009-09-30 12:54:00
9:54 AM,55.0,43.0,64,30.05,10.0,NNW,19.6,25.3,N/A,,Clear,340,2009-09-30 13:54:00
10:54 AM,57.0,42.1,57,30.06,10.0,North,15.0,20.7,N/A,,Clear,360,2009-09-30 14:54:00
11:54 AM,59.0,44.1,58,30.05,10.0,North,13.8,23.0,N/A,,Clear,360,2009-09-30 15:54:00
12:54 PM,62.1,44.1,52,30.04,10.0,North,15.0,21.9,N/A,,Clear,350,2009-09-30 16:54:00
1:54 PM,63.0,45.0,52,30.02,10.0,North,12.7,-,N/A,,Clear,350,2009-09-30 17:54:00
2:54 PM,64.9,46.0,50,30.00,10.0,North,10.4,-,N/A,,Clear,360,2009-09-30 18:54:00
3:54 PM,64.9,46.0,50,29.99,10.0,NNE,13.8,19.6,N/A,,Clear,20,2009-09-30 19:54:00
4:54 PM,64.0,43.0,46,30.00,10.0,NNW,16.1,-,N/A,,Clear,340,2009-09-30 20:54:00
5:54 PM,62.1,44.1,52,30.01,10.0,NNW,15.0,19.6,N/A,,Clear,330,2009-09-30 21:54:00
6:54 PM,59.0,45.0,60,30.02,10.0,NNW,13.8,-,N/A,,Clear,340,2009-09-30 22:54:00
7:54 PM,55.0,46.0,72,30.05,10.0,NNW,6.9,-,N/A,,Clear,340,2009-09-30 23:54:00
8:54 PM,53.1,46.0,77,30.06,10.0,NNW,6.9,-,N/A,,Clear,340,2009-10-01 00:54:00
9:54 PM,52.0,45.0,77,30.06,10.0,NNW,10.4,-,N/A,,Clear,340,2009-10-01 01:54:00
10:54 PM,51.1,45.0,80,30.06,10.0,North,5.8,-,N/A,,Clear,350,2009-10-01 02:54:00
11:54 PM,50.0,46.0,86,30.06,10.0,NNW,5.8,-,N/A,,Mostly Cloudy,340,2009-10-01 03:54:00